This is the latest recevied weather packets stored in our database for station/object KD7JB. If no packets are shown the sender has not sent any weather packets the latest 10 day(s).
| Time | Temp. | Humidity | Pressure | Rain* | Wind** | Luminosity | Snow |
|---|---|---|---|---|---|---|---|
| 1777218120 | 6.67° C | 33% | 1167.7 hPa | 0 mm | - | 334 W/m² | - |
| 1777217816 | 6.67° C | 33% | 1167.7 hPa | 0 mm | - | 320 W/m² | - |
| 1777217512 | 6.67° C | 33% | 1167.8 hPa | 0 mm | - | 304 W/m² | - |
| 1777217209 | 6.67° C | 34% | 1167.6 hPa | 0 mm | - | 291 W/m² | - |
| 1777216905 | 6.67° C | 33% | 1167.6 hPa | 0 mm | - | 277 W/m² | - |
| 1777216602 | 6.11° C | 33% | 1167.6 hPa | 0 mm | - | 263 W/m² | - |
| 1777216297 | 6.11° C | 33% | 1167.7 hPa | 0 mm | - | 249 W/m² | - |
| 1777215996 | 6.11° C | 32% | 1167.7 hPa | 0 mm | - | 233 W/m² | - |
| 1777215692 | 6.11° C | 33% | 1167.6 hPa | 0 mm | - | 218 W/m² | - |
| 1777215387 | 5.56° C | 33% | 1167.6 hPa | 0 mm | - | 205 W/m² | - |
| 1777215084 | 5.56° C | 34% | 1167.5 hPa | 0 mm | - | 190 W/m² | - |
| 1777214779 | 5.56° C | 35% | 1167.6 hPa | 0 mm | - | 174 W/m² | - |
| 1777214479 | 5.56° C | 35% | 1167.5 hPa | 0 mm | - | 161 W/m² | - |
| 1777214174 | 5° C | 36% | 1167.7 hPa | 0 mm | - | 147 W/m² | - |
| 1777213869 | 5° C | 38% | 1167.7 hPa | 0 mm | - | 134 W/m² | - |
| 1777213569 | 5° C | 38% | 1167.6 hPa | 0 mm | - | 123 W/m² | - |
| 1777213266 | 5° C | 40% | 1168 hPa | 0 mm | - | 109 W/m² | - |
| 1777212962 | 5° C | 41% | 1167.6 hPa | 0 mm | - | 98 W/m² | - |
| 1777212661 | 4.44° C | 43% | 1167.7 hPa | 0 mm | - | 74 W/m² | - |
| 1777212358 | 4.44° C | 41% | 1167.6 hPa | 0 mm | - | 40 W/m² | - |
| 1777212055 | 4.44° C | 42% | 1167.7 hPa | 0 mm | - | 31 W/m² | - |
| 1777211750 | 3.89° C | 42% | 1167.5 hPa | 0 mm | - | 29 W/m² | - |
| 1777211449 | 3.89° C | 42% | 1167.4 hPa | 0 mm | - | 31 W/m² | - |
| 1777211145 | 3.89° C | 41% | 1167.5 hPa | 0 mm | - | 40 W/m² | - |
| 1777210842 | 3.89° C | 41% | 1167.7 hPa | 0 mm | - | 32 W/m² | - |
* Rain latest hour (hover to see other rain measurements)
** Current wind speed in m/s (hover to see current wind gust speed)